Location: Seattle
(47.6064°N, 122.3308°W)
Time: 19:50:25
(UTC-07:00)

Tiros 1 - Pass Details

Date: 29 July 2021
Orbit: 630 x 663 km, 48.4° (Epoch: 18 September)

Event Time Altitude Azimuth Distance (km) Brightness Sun altitude
Rises 01:57:02 0° 286° (WNW) 2,952 10.6 -23.1°
Reaches altitude 10° 01:59:31 10° 278° (W) 2,034 9.7 -23.0°
Enters shadow 02:00:23 15° 273° (W) 1,733 9.2 -23.0°
